SCP
-0 -0 -0 -0 -0 -0 -0 -0 0 0 0 0 0 0 0 0 0 0 0 0 0 0 0 0 0 0 0 0 0 0 -0 0 -0 -0 0 -0 -0 -0 -0 -0 -0 -0 -0 -0 0 0 0
-0 -0 -0 -0 -0 -0 -0 -0 -0 0 0 0 0 0 0 0 0 0 -0 0 0 0 0 0 0 0 0 0 0 0 0 0 0 -0 -0 -0 -0 0 0 -0 0 -0 -0 0 -0 -0 -0
-0 -0 -0 -0 -0 -0 -0 -0 -0 -0 -0 0 0 0 0 0 0 0 -0 -0 0 0 0 0 0 0 0 0 0 0 0 0 0 0 0 0 0 0 0 0 0 0 0 0 -0 0 0
-0 -0 -0 -0 -0 -0 -0 -0 -0 -0 -0 -0 0 0 0 0 0 0 -0 -0 0 0 0 -0 -0 -0 0 0 0 0 0 0 0 0 0 0 0 0 0 0 0 0 -0 -0 0 -0 -0
-0 -0 -0 -0 -0 -0 -0 -0 -0 -0 -0 -0 -0 0 0 0 0 0 -0 -0 -0 0 0 -0 0 0 0 0 0 0 0 0 0 0 0 0 0 0 0 0 -0 0 0 -0 -0 0 0
-0 -0 -0 -0 -0 -0 -0 -0 -0 -0 -0 -0 -0 0 0 0 0 -0 -0 -0 -0 -0 -0 -0 0 0 0 0 0 0 0 0 0 0 0 -0 0 0 0 0 -0 0 0 0 0 0 0
-0 -0 -0 -0 -0 -0 -0 -0 -0 -0 -0 -0 -0 -0 0 0 -0 -0 -0 0 0 0 0 0 0 0 0 0 0 0 0 -0 0 -0 -0 -0 0 0 -0 0 0 0 0 0 0 0 0
-0 -0 -0 -0 -0 -0 -0 -0 -0 -0 -0 -0 -0 -0 0 0 -0 -0 -0 0 0 0 0 0 0 0 0 0 0 0 -0 -0 0 -0 -0 0 -0 0 0 0 0 0 0 0 0 0 0
-0 -0 -0 -0 -0 -0 -0 -0 -0 -0 -0 -0 -0 -0 -0 -0 -0 -0 -0 0 0 0 0 0 0 0 0 -0 0 0 -0 -0 0 0 0 -0 0 0 0 0 0 0 0 0 0 0 0
-0 -0 -0 -0 -0 -0 -0 -0 -0 -0 -0 -0 -0 0 -0 -0 -0 -0 -0 0 0 0 0 0 0 0 0 -0 0 0 0 0 -0 -0 0 0 0 0 0 0 0 0 0 0 0 0 0
-0 -0 -0 -0 -0 -0 -0 -0 -0 -0 -0 -0 0 -0 -0 0 -0 -0 0 0 0 -0 0 0 0 0 0 0 0 0 0 0 0 0 0 0 0 -0 0 0 0 0 0 0 0 0 0
-0 -0 -0 -0 -0 -0 -0 -0 -0 -0 -0 0 0 -0 0 -0 -0 0 0 0 0 0 0 0 0 0 0 0 0 0 0 0 0 0 -0 0 0 0 0 0 0 0 0 0 0 0 0
-0 -0 -0 -0 -0 -0 -0 -0 -0 -0 -0 0 0 0 0 0 0 0 -0 -0 0 0 0 0 0 0 0 0 0 0 0 0 0 0 0 0 0 0 0 0 -0 -0 0 0 0 0 0
-0 -0 -0 -0 -0 -0 -0 -0 -0 -0 -0 0 0 0 0 0 0 0 -0 0 0 0 0 0 0 0 0 0 0 0 0 0 0 0 0 0 0 0 0 0 0 0 0 0 0 0 0
-0 -0 -0 -0 -0 -0 -0 -0 -0 -0 0 0 0 0 0 0 0 -0 0 0 0 0 0 0 0 0 0 0 0 0 0 0 0 0 0 0 0 0 0 0 0 0 0 0 0 0 0
-0 -0 -0 -0 -0 -0 -0 -0 -0 -0 0 0 0 0 0 0 0 0 0 0 0 0 0 0 0 0 0 0 0 0 0 0 0 0 0 0 0 0 0 0 0 0 0 0 0 0 0
-0 -0 -0 -0 -0 -0 -0 -0 -0 -0 0 0 0 0 0 0 0 0 0 0 0 0 0 0 0 0 0 0 0 0 0 0 0 0 0 0 0 0 0 0 0 0 0 0 0 0 0
-0 -0 -0 -0 -0 -0 -0 -0 -0 -0 0 0 0 0 0 0 0 0 0 0 0 0 0 0 0 0 0 0 0 0 0 0 0 0 0 0 0 0 0 0 0 0 0 0 0 0 0
-0 -0 -0 -0 -0 -0 -0 -0 -0 -0 0 0 0 0 0 0 0 0 0 0 0 0 0 0 0 0 0 0 0 0 0 0 0 0 0 0 0 0 0 -0 -0 0 0 0 0 0 0
-0 -0 -0 -0 -0 -0 -0 -0 -0 -0 0 0 0 0 0 0 0 0 0 0 0 0 0 0 0 0 0 0 0 0 0 0 0 0 0 0 0 0 0 0 0 0 0 0 0 0 0
-0 -0 -0 -0 -0 -0 -0 -0 -0 -0 -0 0 0 0 0 0 0 0 0 0 0 0 0 0 0 0 0 0 0 0 0 0 0 0 0 0 0 0 0 0 0 0 0 0 0 0 0
-0 -0 -0 -0 -0 -0 -0 -0 -0 -0 -0 0 0 0 0 0 0 0 0 0 0 0 0 0 0 0 0 0 0 0 0 0 0 0 0 0 0 0 -0 0 -0 -0 0 0 0 0 0
-0 -0 -0 -0 -0 -0 -0 -0 -0 -0 -0 0 0 0 0 0 0 0 0 0 0 0 0 0 0 0 0 0 0 0 0 0 0 0 0 0 0 0 0 0 -0 0 0 0 0 0 0
-0 -0 -0 -0 -0 -0 -0 -0 -0 -0 -0 0 0 0 0 0 0 0 0 0 0 0 0 0 0 0 0 0 0 0 0 0 0 0 0 0 0 0 0 0 0 0 0 0 0 0 0
-0 -0 -0 -0 -0 -0 -0 -0 -0 -0 -0 0 0 0 0 0 0 0 0 0 0 0 0 0 0 0 0 0 0 0 0 0 0 0 0 0 0 0 0 0 -0 -0 -0 -0 0 0 0
-0 -0 -0 -0 -0 -0 -0 -0 -0 -0 -0 0 0 0 0 0 0 0 0 0 0 0 0 0 0 0 0 0 0 0 0 0 0 0 0 0 -0 0 0 0 0 0 -0 0 0 0 0
-0 -0 -0 -0 -0 -0 -0 -0 -0 0 0 0 0 0 0 0 0 0 0 0 0 0 0 0 0 0 -0 -0 -0 0 0 0 0 0 0 0 -0 -0 0 0 -0 -0 0 0 -0 0 0
-0 -0 -0 -0 -0 -0 -0 0 0 0 0 0 0 0 0 0 0 0 0 0 0 0 0 0 0 0 -0 -0 0 0 0 0 0 0 0 -0 -0 0 -0 -0 0 -0 -0 -0 0 -0 -0
-0 -0 -0 -0 -0 0 0 0 0 0 -0 -0 -0 0 0 0 0 -0 -0 -0 -0 -0 -0 0 0 -0 -0 0 0 0 0 0 0 0 -0 0 0 -0 -0 -0 0 -0 -0 0 0 0 -0
Wind_Speed_500mb
29 30 30 30 30 29 28 27 25 25 24 22 21 20 14 10 10 11 12 13 14 14 13 12 11 9 8 13 19 7 15 10 10 16 24 27 32 32 34 35 42 42 32 42 31 19 27
31 31 32 32 33 33 32 30 27 25 24 23 22 20 16 11 8 10 10 12 13 12 12 11 9 8 8 27 3 5 9 6 10 17 21 25 22 25 31 32 34 41 30 52 33 35 35
33 33 34 34 34 35 34 33 30 26 24 22 20 19 16 11 5 7 9 11 12 11 10 8 8 9 17 21 7 7 12 7 13 13 15 20 16 18 20 24 31 25 30 32 41 37 33
34 35 36 36 36 37 37 35 32 28 24 21 19 16 14 7 4 8 10 11 11 10 9 8 8 6 14 13 12 13 15 9 14 13 11 15 18 24 27 19 12 28 32 33 41 51 51
35 36 37 37 38 39 39 38 34 29 24 20 16 13 10 2 6 11 12 11 9 8 8 8 3 9 14 3 11 19 20 12 13 12 12 14 17 26 22 24 27 26 27 38 34 41 41
37 38 39 39 40 40 40 39 36 31 25 18 14 9 5 8 13 14 12 8 5 6 6 5 12 14 15 10 9 21 21 15 13 16 13 19 21 21 24 26 25 21 33 26 21 26 20
39 40 41 41 42 43 42 40 38 32 25 16 11 4 4 14 16 11 11 4 3 5 19 18 9 7 10 7 14 24 23 20 16 21 24 28 20 25 32 25 27 25 26 24 25 11 3
40 42 43 44 45 45 44 43 40 33 24 14 7 3 10 19 15 12 8 8 10 10 11 8 8 17 10 9 16 21 25 24 20 25 23 13 26 19 7 12 17 24 27 30 27 25 16
41 43 44 46 47 47 47 45 40 34 23 13 6 9 15 19 16 11 6 1 5 13 16 14 6 8 24 20 4 22 27 26 19 22 21 27 15 10 6 23 21 26 26 26 27 22 24
43 44 47 48 49 50 49 47 41 33 22 11 9 15 22 19 7 8 10 6 14 10 11 22 19 8 18 21 10 1 6 15 21 21 23 21 6 9 20 22 22 26 20 17 20 25 26
45 46 48 50 50 51 51 48 42 33 21 11 10 19 26 27 9 7 3 13 7 6 12 14 12 8 14 11 17 8 1 17 26 9 15 11 14 20 19 11 7 25 21 18 26 26 29
45 47 50 52 52 53 53 50 43 31 21 7 10 19 26 22 9 7 9 11 2 14 3 13 7 9 19 13 12 8 5 5 10 20 23 28 8 7 20 26 23 23 25 32 34 32 32
46 48 51 53 55 55 55 52 44 29 15 1 12 19 27 18 7 13 12 9 13 15 6 9 9 5 14 9 13 16 20 21 13 11 27 27 2 19 20 23 25 24 22 23 27 28 29
47 49 52 54 56 57 56 55 42 24 5 13 18 17 12 3 12 10 9 18 21 13 13 6 4 7 7 10 10 7 11 12 26 26 18 14 17 12 12 16 17 25 19 22 35 27 33
47 49 53 54 57 59 57 56 41 19 11 20 17 8 2 13 9 9 20 19 10 11 5 4 11 20 11 8 9 11 24 11 19 25 15 12 4 8 10 17 15 16 18 25 25 32 32
47 49 52 55 58 60 58 55 39 18 18 20 8 9 7 7 7 8 18 9 7 7 5 12 12 8 10 5 15 9 9 15 7 19 18 13 14 12 16 17 13 13 23 19 18 36 38
47 50 52 55 57 60 60 56 41 16 16 21 4 14 9 6 6 21 13 12 13 8 2 11 2 4 5 6 7 8 14 15 13 13 12 16 3 8 13 16 21 23 10 15 17 17 25
47 49 52 55 57 60 61 57 44 12 13 20 10 9 16 6 16 7 7 11 12 13 10 6 10 11 5 4 9 9 14 19 11 13 8 12 8 14 13 12 11 20 21 17 14 18 28
48 48 52 56 57 59 62 58 44 9 18 10 15 7 16 4 8 9 15 22 15 6 7 4 7 8 1 7 9 20 16 14 15 21 12 14 6 11 23 19 11 13 19 24 21 23 33
47 48 51 55 58 59 61 59 48 12 11 10 7 7 12 10 8 24 23 18 17 17 20 16 15 13 13 12 14 18 22 10 17 21 12 11 4 9 14 20 20 21 26 23 20 20 32
47 47 50 55 57 58 58 60 56 25 13 11 6 6 5 7 12 12 3 14 21 10 10 4 8 7 18 11 20 21 21 18 8 7 4 9 3 8 10 9 11 16 18 19 21 27 31
45 46 49 54 56 57 57 58 60 37 14 20 5 8 17 24 21 17 2 15 19 18 2 6 15 11 7 16 12 19 13 9 9 8 6 3 4 11 23 13 16 17 25 27 35 41 47
42 44 46 51 55 57 54 55 55 53 37 31 26 21 8 10 11 15 12 9 17 18 16 13 16 18 24 18 19 16 16 14 13 8 9 5 11 8 8 13 22 19 23 30 36 39 34
38 40 42 47 52 54 52 49 49 50 44 30 21 10 10 16 17 17 22 22 19 17 21 16 4 17 9 12 21 20 20 20 17 16 11 9 9 6 8 13 5 26 30 36 36 38 40
36 38 40 42 46 50 49 47 43 41 41 26 25 27 30 21 29 25 23 25 26 25 24 22 17 14 18 20 20 16 15 13 16 14 11 8 14 6 6 15 19 25 37 46 35 16 48
36 36 37 41 42 43 43 38 40 44 37 26 30 24 25 27 20 18 16 7 15 17 19 18 13 11 14 13 11 11 6 13 9 15 6 6 9 2 7 2 7 20 36 55 45 5 58
35 36 35 38 41 39 37 38 42 39 35 35 39 44 46 50 44 30 19 15 6 5 14 13 9 12 14 13 13 5 13 9 3 9 15 16 15 12 11 5 10 24 38 42 23 20 39
34 34 34 37 38 35 33 30 34 45 53 44 52 44 55 65 50 45 43 39 24 28 13 13 10 8 13 6 5 4 8 10 14 14 6 11 10 7 10 9 4 36 12 12 16 33 26
31 33 34 34 34 34 30 26 22 32 32 31 39 30 27 51 45 41 45 40 29 16 19 12 12 14 18 6 6 5 11 8 10 7 21 6 7 6 6 6 3 13 15 16 12 19 27
Wind_Direction_500mb
28 24 21 16 13 8 3 359 356 350 347 344 344 337 326 307 272 247 235 229 218 218 213 216 220 214 207 238 257 252 224 262 241 195 204 210 221 230 235 237 233 237 245 249 257 251 252
24 21 17 14 9 5 2 358 354 350 346 342 344 340 330 312 269 243 228 220 204 202 205 208 211 208 221 251 244 241 227 244 181 183 204 215 226 242 265 261 245 238 233 254 241 242 238
17 16 14 11 6 3 0 357 354 350 347 341 343 340 333 318 268 225 213 195 190 187 197 200 208 214 253 243 211 204 166 191 194 191 220 225 242 236 222 262 247 268 267 265 255 249 249
15 12 9 6 4 1 358 355 353 349 347 341 341 343 335 324 210 183 177 173 176 178 180 187 197 193 258 206 205 196 192 195 192 209 230 227 233 247 255 273 259 241 243 247 230 223 234
13 9 6 3 1 358 355 352 351 348 345 341 338 342 345 12 151 148 151 158 170 173 168 165 102 207 235 220 193 198 191 209 201 211 229 231 220 235 212 248 238 215 244 231 246 217 219
11 8 4 2 359 356 353 350 348 346 343 340 334 343 13 121 137 135 126 119 142 162 167 192 249 238 221 189 177 181 185 188 185 185 188 204 215 225 222 223 240 238 209 228 261 225 214
10 7 3 0 359 354 351 349 346 345 341 337 328 336 117 142 142 146 155 113 162 196 223 252 160 297 133 142 146 177 184 190 191 200 222 209 225 221 233 217 281 330 305 303 304 252 313
11 6 4 1 359 355 350 348 346 343 339 328 312 234 160 158 152 138 126 252 24 0 252 210 231 230 184 174 155 174 184 205 199 227 209 189 228 261 15 306 268 264 260 260 260 262 282
9 5 3 2 359 356 351 347 345 342 337 318 267 199 170 170 177 182 185 323 330 332 252 154 127 168 182 196 123 156 197 220 238 237 207 258 59 44 223 234 240 247 261 275 281 296 222
9 5 2 1 359 356 352 346 345 340 332 306 247 194 177 171 197 213 231 252 316 284 254 146 185 110 163 195 134 80 223 273 229 255 237 253 279 198 248 248 258 272 264 290 275 260 259
9 5 2 0 359 356 352 347 344 338 330 298 228 194 187 177 154 213 180 319 290 203 228 100 83 125 171 181 125 106 321 237 274 226 247 148 181 215 238 283 21 284 325 284 283 276 279
9 5 2 1 359 357 353 349 345 339 330 295 199 185 186 200 225 247 302 306 190 231 171 109 91 182 111 105 55 123 142 259 340 285 252 277 97 305 353 312 285 275 287 274 267 259 254
10 7 3 2 360 358 355 351 348 343 342 159 165 173 178 180 234 267 286 230 226 253 158 105 83 117 78 113 75 76 88 66 23 276 221 207 255 98 2 301 251 240 266 275 261 238 244
10 8 6 3 1 360 358 354 351 351 44 118 128 146 173 200 284 274 255 234 257 48 37 78 151 177 134 147 91 128 153 102 29 340 295 285 169 354 23 360 322 295 297 286 302 297 308
11 10 8 5 4 1 360 358 354 356 158 143 126 129 152 283 249 229 248 236 353 39 19 297 207 211 146 120 164 125 68 58 29 15 338 319 156 86 32 330 336 357 273 342 293 279 272
11 11 9 8 6 4 2 1 358 355 180 167 116 193 346 254 225 232 242 34 84 52 319 236 247 285 187 114 197 185 97 30 33 15 340 36 290 86 342 287 216 347 328 307 274 269 268
11 11 9 10 9 6 4 4 3 360 177 182 231 233 350 234 219 236 273 70 96 78 35 328 64 143 66 141 12 82 60 71 13 19 15 354 278 334 306 45 343 332 342 353 317 289 291
12 12 10 11 12 9 6 5 6 11 171 185 270 247 358 153 215 306 155 120 96 93 104 77 51 57 56 132 93 93 95 46 14 337 35 35 317 297 329 71 34 51 34 2 335 320 318
13 12 11 12 13 13 10 5 8 11 172 181 254 5 351 237 231 144 122 110 79 118 39 97 105 49 162 113 121 111 108 62 45 27 25 358 111 282 154 163 152 43 343 333 311 285 274
14 14 12 12 14 15 15 10 10 16 171 180 247 207 65 60 34 129 153 136 120 83 68 75 103 109 115 108 88 131 123 82 56 62 7 296 67 355 337 346 344 316 329 329 312 292 304
16 17 16 16 16 17 19 19 15 29 125 126 328 56 356 140 99 95 174 142 140 120 95 59 95 139 133 119 109 111 112 128 104 81 106 347 98 323 314 280 301 306 296 322 313 327 318
17 19 20 20 20 20 20 23 26 30 85 74 82 120 96 102 118 115 165 98 109 91 45 113 127 124 191 108 31 124 134 129 79 113 56 28 70 297 271 140 291 279 43 358 13 352 329
18 18 21 22 22 21 21 24 32 39 60 86 84 109 111 154 122 89 83 90 109 120 63 70 126 127 104 78 69 81 67 81 96 34 61 11 344 324 310 330 273 85 29 16 347 340 13
18 18 20 22 23 22 23 26 32 38 58 72 70 73 118 86 78 90 100 95 72 60 107 111 112 115 98 134 123 120 113 117 108 87 43 1 307 295 307 309 337 124 33 357 347 34 359
17 19 19 19 21 23 27 32 35 41 58 54 60 79 99 100 101 93 100 104 102 103 96 94 76 95 142 160 141 137 135 152 104 60 64 36 309 8 316 321 130 33 357 346 340 358 17
18 19 21 22 24 26 28 39 34 40 59 58 72 83 105 103 55 83 95 113 118 119 112 110 97 121 163 222 226 240 138 61 138 152 123 129 234 123 334 246 351 358 343 336 317 236 13
20 20 22 23 27 30 31 42 47 44 62 65 76 87 94 80 49 51 36 48 48 53 82 113 117 147 212 219 212 193 107 328 113 56 16 1 353 2 337 305 106 351 335 326 21 343 341
23 22 25 27 31 37 39 56 52 57 75 73 75 83 100 88 68 61 54 42 30 25 26 104 189 188 214 291 79 144 121 81 87 55 32 28 314 29 337 359 36 2 3 29 293 315 341
24 26 29 34 40 43 43 50 55 45 82 70 80 80 84 91 84 61 55 47 41 28 354 87 95 41 10 348 90 147 135 159 139 107 68 63 10 356 48 45 282 340 296 349 337 331 1
Wind_Speed_850mb
29 30 30 30 30 29 28 27 25 25 24 22 21 20 14 10 10 11 12 13 14 14 13 12 11 9 8 13 19 7 15 10 10 16 24 27 32 32 34 35 42 42 32 42 31 19 27
31 31 32 32 33 33 32 30 27 25 24 23 22 20 16 11 8 10 10 12 13 12 12 11 9 8 8 27 3 5 9 6 10 17 21 25 22 25 31 32 34 41 30 52 33 35 35
33 33 34 34 34 35 34 33 30 26 24 22 20 19 16 11 5 7 9 11 12 11 10 8 8 9 17 21 7 7 12 7 13 13 15 20 16 18 20 24 31 25 30 32 41 37 33
34 35 36 36 36 37 37 35 32 28 24 21 19 16 14 7 4 8 10 11 11 10 9 8 8 6 14 13 12 13 15 9 14 13 11 15 18 24 27 19 12 28 32 33 41 51 51
35 36 37 37 38 39 39 38 34 29 24 20 16 13 10 2 6 11 12 11 9 8 8 8 3 9 14 3 11 19 20 12 13 12 12 14 17 26 22 24 27 26 27 38 34 41 41
37 38 39 39 40 40 40 39 36 31 25 18 14 9 5 8 13 14 12 8 5 6 6 5 12 14 15 10 9 21 21 15 13 16 13 19 21 21 24 26 25 21 33 26 21 26 20
39 40 41 41 42 43 42 40 38 32 25 16 11 4 4 14 16 11 11 4 3 5 19 18 9 7 10 7 14 24 23 20 16 21 24 28 20 25 32 25 27 25 26 24 25 11 3
40 42 43 44 45 45 44 43 40 33 24 14 7 3 10 19 15 12 8 8 10 10 11 8 8 17 10 9 16 21 25 24 20 25 23 13 26 19 7 12 17 24 27 30 27 25 16
41 43 44 46 47 47 47 45 40 34 23 13 6 9 15 19 16 11 6 1 5 13 16 14 6 8 24 20 4 22 27 26 19 22 21 27 15 10 6 23 21 26 26 26 27 22 24
43 44 47 48 49 50 49 47 41 33 22 11 9 15 22 19 7 8 10 6 14 10 11 22 19 8 18 21 10 1 6 15 21 21 23 21 6 9 20 22 22 26 20 17 20 25 26
45 46 48 50 50 51 51 48 42 33 21 11 10 19 26 27 9 7 3 13 7 6 12 14 12 8 14 11 17 8 1 17 26 9 15 11 14 20 19 11 7 25 21 18 26 26 29
45 47 50 52 52 53 53 50 43 31 21 7 10 19 26 22 9 7 9 11 2 14 3 13 7 9 19 13 12 8 5 5 10 20 23 28 8 7 20 26 23 23 25 32 34 32 32
46 48 51 53 55 55 55 52 44 29 15 1 12 19 27 18 7 13 12 9 13 15 6 9 9 5 14 9 13 16 20 21 13 11 27 27 2 19 20 23 25 24 22 23 27 28 29
47 49 52 54 56 57 56 55 42 24 5 13 18 17 12 3 12 10 9 18 21 13 13 6 4 7 7 10 10 7 11 12 26 26 18 14 17 12 12 16 17 25 19 22 35 27 33
47 49 53 54 57 59 57 56 41 19 11 20 17 8 2 13 9 9 20 19 10 11 5 4 11 20 11 8 9 11 24 11 19 25 15 12 4 8 10 17 15 16 18 25 25 32 32
47 49 52 55 58 60 58 55 39 18 18 20 8 9 7 7 7 8 18 9 7 7 5 12 12 8 10 5 15 9 9 15 7 19 18 13 14 12 16 17 13 13 23 19 18 36 38
47 50 52 55 57 60 60 56 41 16 16 21 4 14 9 6 6 21 13 12 13 8 2 11 2 4 5 6 7 8 14 15 13 13 12 16 3 8 13 16 21 23 10 15 17 17 25
47 49 52 55 57 60 61 57 44 12 13 20 10 9 16 6 16 7 7 11 12 13 10 6 10 11 5 4 9 9 14 19 11 13 8 12 8 14 13 12 11 20 21 17 14 18 28
48 48 52 56 57 59 62 58 44 9 18 10 15 7 16 4 8 9 15 22 15 6 7 4 7 8 1 7 9 20 16 14 15 21 12 14 6 11 23 19 11 13 19 24 21 23 33
47 48 51 55 58 59 61 59 48 12 11 10 7 7 12 10 8 24 23 18 17 17 20 16 15 13 13 12 14 18 22 10 17 21 12 11 4 9 14 20 20 21 26 23 20 20 32
47 47 50 55 57 58 58 60 56 25 13 11 6 6 5 7 12 12 3 14 21 10 10 4 8 7 18 11 20 21 21 18 8 7 4 9 3 8 10 9 11 16 18 19 21 27 31
45 46 49 54 56 57 57 58 60 37 14 20 5 8 17 24 21 17 2 15 19 18 2 6 15 11 7 16 12 19 13 9 9 8 6 3 4 11 23 13 16 17 25 27 35 41 47
42 44 46 51 55 57 54 55 55 53 37 31 26 21 8 10 11 15 12 9 17 18 16 13 16 18 24 18 19 16 16 14 13 8 9 5 11 8 8 13 22 19 23 30 36 39 34
38 40 42 47 52 54 52 49 49 50 44 30 21 10 10 16 17 17 22 22 19 17 21 16 4 17 9 12 21 20 20 20 17 16 11 9 9 6 8 13 5 26 30 36 36 38 40
36 38 40 42 46 50 49 47 43 41 41 26 25 27 30 21 29 25 23 25 26 25 24 22 17 14 18 20 20 16 15 13 16 14 11 8 14 6 6 15 19 25 37 46 35 16 48
36 36 37 41 42 43 43 38 40 44 37 26 30 24 25 27 20 18 16 7 15 17 19 18 13 11 14 13 11 11 6 13 9 15 6 6 9 2 7 2 7 20 36 55 45 5 58
35 36 35 38 41 39 37 38 42 39 35 35 39 44 46 50 44 30 19 15 6 5 14 13 9 12 14 13 13 5 13 9 3 9 15 16 15 12 11 5 10 24 38 42 23 20 39
34 34 34 37 38 35 33 30 34 45 53 44 52 44 55 65 50 45 43 39 24 28 13 13 10 8 13 6 5 4 8 10 14 14 6 11 10 7 10 9 4 36 12 12 16 33 26
31 33 34 34 34 34 30 26 22 32 32 31 39 30 27 51 45 41 45 40 29 16 19 12 12 14 18 6 6 5 11 8 10 7 21 6 7 6 6 6 3 13 15 16 12 19 27
Wind_Direction_850mb
28 24 21 16 13 8 3 359 356 350 347 344 344 337 326 307 272 247 235 229 218 218 213 216 220 214 207 238 257 252 224 262 241 195 204 210 221 230 235 237 233 237 245 249 257 251 252
24 21 17 14 9 5 2 358 354 350 346 342 344 340 330 312 269 243 228 220 204 202 205 208 211 208 221 251 244 241 227 244 181 183 204 215 226 242 265 261 245 238 233 254 241 242 238
17 16 14 11 6 3 0 357 354 350 347 341 343 340 333 318 268 225 213 195 190 187 197 200 208 214 253 243 211 204 166 191 194 191 220 225 242 236 222 262 247 268 267 265 255 249 249
15 12 9 6 4 1 358 355 353 349 347 341 341 343 335 324 210 183 177 173 176 178 180 187 197 193 258 206 205 196 192 195 192 209 230 227 233 247 255 273 259 241 243 247 230 223 234
13 9 6 3 1 358 355 352 351 348 345 341 338 342 345 12 151 148 151 158 170 173 168 165 102 207 235 220 193 198 191 209 201 211 229 231 220 235 212 248 238 215 244 231 246 217 219
11 8 4 2 359 356 353 350 348 346 343 340 334 343 13 121 137 135 126 119 142 162 167 192 249 238 221 189 177 181 185 188 185 185 188 204 215 225 222 223 240 238 209 228 261 225 214
10 7 3 0 359 354 351 349 346 345 341 337 328 336 117 142 142 146 155 113 162 196 223 252 160 297 133 142 146 177 184 190 191 200 222 209 225 221 233 217 281 330 305 303 304 252 313
11 6 4 1 359 355 350 348 346 343 339 328 312 234 160 158 152 138 126 252 24 0 252 210 231 230 184 174 155 174 184 205 199 227 209 189 228 261 15 306 268 264 260 260 260 262 282
9 5 3 2 359 356 351 347 345 342 337 318 267 199 170 170 177 182 185 323 330 332 252 154 127 168 182 196 123 156 197 220 238 237 207 258 59 44 223 234 240 247 261 275 281 296 222
9 5 2 1 359 356 352 346 345 340 332 306 247 194 177 171 197 213 231 252 316 284 254 146 185 110 163 195 134 80 223 273 229 255 237 253 279 198 248 248 258 272 264 290 275 260 259
9 5 2 0 359 356 352 347 344 338 330 298 228 194 187 177 154 213 180 319 290 203 228 100 83 125 171 181 125 106 321 237 274 226 247 148 181 215 238 283 21 284 325 284 283 276 279
9 5 2 1 359 357 353 349 345 339 330 295 199 185 186 200 225 247 302 306 190 231 171 109 91 182 111 105 55 123 142 259 340 285 252 277 97 305 353 312 285 275 287 274 267 259 254
10 7 3 2 360 358 355 351 348 343 342 159 165 173 178 180 234 267 286 230 226 253 158 105 83 117 78 113 75 76 88 66 23 276 221 207 255 98 2 301 251 240 266 275 261 238 244
10 8 6 3 1 360 358 354 351 351 44 118 128 146 173 200 284 274 255 234 257 48 37 78 151 177 134 147 91 128 153 102 29 340 295 285 169 354 23 360 322 295 297 286 302 297 308
11 10 8 5 4 1 360 358 354 356 158 143 126 129 152 283 249 229 248 236 353 39 19 297 207 211 146 120 164 125 68 58 29 15 338 319 156 86 32 330 336 357 273 342 293 279 272
11 11 9 8 6 4 2 1 358 355 180 167 116 193 346 254 225 232 242 34 84 52 319 236 247 285 187 114 197 185 97 30 33 15 340 36 290 86 342 287 216 347 328 307 274 269 268
11 11 9 10 9 6 4 4 3 360 177 182 231 233 350 234 219 236 273 70 96 78 35 328 64 143 66 141 12 82 60 71 13 19 15 354 278 334 306 45 343 332 342 353 317 289 291
12 12 10 11 12 9 6 5 6 11 171 185 270 247 358 153 215 306 155 120 96 93 104 77 51 57 56 132 93 93 95 46 14 337 35 35 317 297 329 71 34 51 34 2 335 320 318
13 12 11 12 13 13 10 5 8 11 172 181 254 5 351 237 231 144 122 110 79 118 39 97 105 49 162 113 121 111 108 62 45 27 25 358 111 282 154 163 152 43 343 333 311 285 274
14 14 12 12 14 15 15 10 10 16 171 180 247 207 65 60 34 129 153 136 120 83 68 75 103 109 115 108 88 131 123 82 56 62 7 296 67 355 337 346 344 316 329 329 312 292 304
16 17 16 16 16 17 19 19 15 29 125 126 328 56 356 140 99 95 174 142 140 120 95 59 95 139 133 119 109 111 112 128 104 81 106 347 98 323 314 280 301 306 296 322 313 327 318
17 19 20 20 20 20 20 23 26 30 85 74 82 120 96 102 118 115 165 98 109 91 45 113 127 124 191 108 31 124 134 129 79 113 56 28 70 297 271 140 291 279 43 358 13 352 329
18 18 21 22 22 21 21 24 32 39 60 86 84 109 111 154 122 89 83 90 109 120 63 70 126 127 104 78 69 81 67 81 96 34 61 11 344 324 310 330 273 85 29 16 347 340 13
18 18 20 22 23 22 23 26 32 38 58 72 70 73 118 86 78 90 100 95 72 60 107 111 112 115 98 134 123 120 113 117 108 87 43 1 307 295 307 309 337 124 33 357 347 34 359
17 19 19 19 21 23 27 32 35 41 58 54 60 79 99 100 101 93 100 104 102 103 96 94 76 95 142 160 141 137 135 152 104 60 64 36 309 8 316 321 130 33 357 346 340 358 17
18 19 21 22 24 26 28 39 34 40 59 58 72 83 105 103 55 83 95 113 118 119 112 110 97 121 163 222 226 240 138 61 138 152 123 129 234 123 334 246 351 358 343 336 317 236 13
20 20 22 23 27 30 31 42 47 44 62 65 76 87 94 80 49 51 36 48 48 53 82 113 117 147 212 219 212 193 107 328 113 56 16 1 353 2 337 305 106 351 335 326 21 343 341
23 22 25 27 31 37 39 56 52 57 75 73 75 83 100 88 68 61 54 42 30 25 26 104 189 188 214 291 79 144 121 81 87 55 32 28 314 29 337 359 36 2 3 29 293 315 341
24 26 29 34 40 43 43 50 55 45 82 70 80 80 84 91 84 61 55 47 41 28 354 87 95 41 10 348 90 147 135 159 139 107 68 63 10 356 48 45 282 340 296 349 337 331 1